PROGRESS-MS 08 (43211 NORAD) Tracking and Keplerian Element Data.

This shows tracking and keplerian element data for the satellite.

Feedback or suggestion? Click here.

Epoch Orbit10488
Epoch Day80.51488668
Epoch Year2018
Argument of Perigee226.4922
Mean Anonmoly252.5706
Mean Motion15.54122438
Decay Rate1.81E-05
L11 43211U 18019A 18080.51488668 .00001810 00000-0 34564-4 0 9999
L22 43211 51.6407 95.7783 0001826 226.4922 252.5706 15.54122438104882

Live tracking and technical data element details for PROGRESS-MS 08 (NORAD 43211). PROGRESS-MS 08 can be tracked NOW for your location showing map with azimuth and elevation plus other details from your city location.

Tracking and technical details about the satellite: track the satellite on the map from your city or location and see movement details for azimuth, elevation, latitude, longitude, range, height, and movement on the map or in text.

Es'hailsat 2 (coming in 2018)

IsCatalogInMostPopularTable: catalog: 43211, numindb: 87
Update: records affected: 1

GetName: 43211 PROGRESS-MS 08

Hit Count: updated at: Thu, 22 Mar 2018 13:36:54 GMT